K5WNG Weather Reports


Display with metric or nautical units.
time (UTC)temp
F
wind
direction
speed
MPH
gust
MPH
rain 1hr
in
rain 24hr
in
rain mn
in
humidity
%
barometer
mb
20260506015020 79 155 0.0 1.0 0.00 0.01 0.00 80 1006.3
20260506014517 79 133 0.0 1.0 0.00 0.01 0.00 80 1006.2
20260506014017 79 130 0.0 2.0 0.00 0.01 0.00 80 1006.1
20260506013520 79 170 0.0 1.0 0.00 0.01 0.00 80 1006.2
20260506013017 79 163 0.0 1.0 0.00 0.01 0.00 79 1006.2
20260506012517 79 132 0.0 2.0 0.00 0.01 0.00 79 1006.1
20260506012021 80 145 0.0 2.0 0.00 0.01 0.00 79 1006.1
20260506011521 80 150 0.0 1.0 0.00 0.01 0.00 78 1006.1
20260506011018 80 156 0.0 1.0 0.00 0.01 0.00 78 1006.2
20260506010521 80 99 0.0 1.0 0.00 0.01 0.00 78 1006.2
20260506010021 80 111 0.0 2.0 0.00 0.01 0.00 77 1006.2
20260506005518 81 170 0.0 1.0 0.00 0.01 0.00 77 1006.2
20260506005018 81 197 0.0 1.0 0.00 0.01 0.00 76 1006.2
20260506004518 81 136 0.0 2.0 0.00 0.01 0.00 76 1006.2
20260506004018 81 131 0.0 2.0 0.00 0.01 0.00 75 1006.2
20260506003518 81 178 0.0 1.0 0.00 0.01 0.00 75 1006.1
20260506003018 82 197 0.0 2.0 0.00 0.01 0.00 75 1006.2
20260506002518 82 150 0.0 1.0 0.00 0.01 0.00 74 1006.2
20260506002018 82 96 0.0 2.0 0.00 0.01 0.00 73 1006.2
20260506001516 82 136 0.0 1.0 0.00 0.01 0.00 73 1006.2
20260506001019 82 130 0.0 1.0 0.00 0.01 0.00 72 1006.1
20260506000519 82 187 0.0 1.0 0.00 0.01 0.00 72 1006.1
20260506000019 83 151 1.0 3.0 0.00 0.01 0.00 72 1006.0
20260505235516 83 227 0.0 2.0 0.00 0.01 0.01 72 1006.0
20260505235016 83 99 0.0 2.0 0.00 0.01 0.01 71 1005.9
20260505234516 83 148 0.0 2.0 0.00 0.01 0.01 71 1005.8
20260505234021 83 155 1.0 3.0 0.00 0.01 0.01 71 1005.8
20260505233516 83 108 0.0 3.0 0.00 0.01 0.01 71 1005.8
20260505233021 83 136 1.0 3.0 0.00 0.01 0.01 71 1005.7
20260505232516 83 96 1.0 3.0 0.00 0.01 0.01 71 1005.8
20260505232017 84 231 1.0 4.0 0.00 0.01 0.01 71 1005.7
20260505231517 84 126 1.0 2.0 0.00 0.01 0.01 70 1005.7
20260505231019 84 137 1.0 2.0 0.00 0.01 0.01 70 1005.7
20260505230517 84 119 0.0 2.0 0.00 0.01 0.01 70 1005.7
20260505230016 85 137 0.0 2.0 0.00 0.01 0.01 69 1005.7
20260505225516 85 123 0.0 2.0 0.00 0.01 0.01 69 1005.6
20260505225020 85 90 1.0 3.0 0.00 0.01 0.01 68 1005.6
20260505224520 85 93 0.0 2.0 0.00 0.01 0.01 69 1005.7
20260505224020 85 213 1.0 4.0 0.00 0.01 0.01 68 1005.5
20260505223521 85 116 1.0 3.0 0.00 0.01 0.01 68 1005.5
20260505223017 86 149 1.0 3.0 0.00 0.01 0.01 67 1005.6
20260505222518 86 128 1.0 3.0 0.00 0.01 0.01 66 1005.5
20260505222020 86 94 1.0 2.0 0.00 0.01 0.01 66 1005.5
20260505221520 86 108 1.0 3.0 0.00 0.01 0.01 66 1005.6
20260505221020 86 129 1.0 2.0 0.00 0.01 0.01 67 1005.7
20260505220520 86 153 1.0 2.0 0.00 0.01 0.01 65 1005.7
20260505220021 87 143 1.0 3.0 0.00 0.01 0.01 65 1005.7
20260505215518 87 126 1.0 3.0 0.00 0.01 0.01 64 1005.7
20260505215018 87 178 1.0 4.0 0.00 0.01 0.01 64 1005.9
20260505214521 87 248 1.0 3.0 0.00 0.01 0.01 65 1006.0
20260505214021 87 188 1.0 4.0 0.00 0.01 0.01 65 1006.1
20260505213521 87 105 1.0 3.0 0.00 0.01 0.01 65 1006.0
20260505213019 87 141 1.0 2.0 0.00 0.01 0.01 65 1006.1
20260505212518 87 246 1.0 4.0 0.00 0.01 0.01 65 1006.2
20260505212016 86 122 1.0 3.0 0.00 0.01 0.01 65 1006.3
20260505211515 86 134 1.0 3.0 0.00 0.01 0.01 65 1006.3
20260505211019 86 188 1.0 5.0 0.00 0.01 0.01 66 1006.2
20260505210515 86 141 1.0 3.0 0.00 0.01 0.01 66 1006.2
20260505210018 86 116 1.0 4.0 0.00 0.01 0.01 66 1006.4
20260505205516 86 122 1.0 3.0 0.00 0.01 0.01 66 1006.4
20260505205018 87 129 1.0 6.0 0.00 0.01 0.01 66 1006.4
20260505204516 86 139 1.0 6.0 0.00 0.01 0.01 66 1006.4
20260505204016 86 90 1.0 5.0 0.00 0.01 0.01 67 1006.4
20260505203519 86 164 1.0 4.0 0.00 0.01 0.01 67 1006.7
20260505203016 85 167 1.0 2.0 0.00 0.01 0.01 69 1006.8
20260505202516 85 132 1.0 4.0 0.00 0.01 0.01 68 1006.9
20260505202016 86 131 1.0 4.0 0.00 0.01 0.01 67 1006.9
20260505201516 85 114 1.0 3.0 0.00 0.01 0.01 68 1007.0
20260505201017 85 145 1.0 2.0 0.00 0.01 0.01 69 1007.1
20260505200519 86 125 1.0 2.0 0.00 0.01 0.01 68 1007.2
20260505200019 86 117 1.0 2.0 0.00 0.01 0.01 68 1007.2
20260505195516 86 151 1.0 3.0 0.00 0.01 0.01 68 1007.3
20260505195016 85 138 1.0 2.0 0.00 0.01 0.01 69 1007.4
20260505194516 85 150 1.0 2.0 0.00 0.01 0.01 69 1007.5
20260505194016 84 226 1.0 3.0 0.00 0.01 0.01 69 1007.6
20260505193520 84 138 1.0 2.0 0.00 0.01 0.01 70 1007.6
20260505193017 83 108 1.0 3.0 0.00 0.01 0.01 71 1007.6
20260505192517 83 235 1.0 2.0 0.00 0.01 0.01 72 1007.6
20260505192016 83 203 1.0 5.0 0.00 0.01 0.01 71 1007.6
20260505191519 83 229 1.0 6.0 0.00 0.01 0.01 72 1007.7
20260505191016 83 180 0.0 2.0 0.00 0.01 0.01 72 1007.6
20260505190519 82 141 1.0 4.0 0.00 0.01 0.01 72 1007.7
20260505190020 82 49 0.0 3.0 0.00 0.01 0.01 73 1007.7
20260505185519 82 243 1.0 6.0 0.00 0.01 0.01 72 1007.8
20260505185019 82 209 1.0 2.0 0.00 0.01 0.01 72 1007.8
20260505184516 81 198 1.0 3.0 0.00 0.01 0.01 73 1007.9
20260505184016 80 124 1.0 3.0 0.01 0.01 0.01 74 1008.0
20260505183519 80 292 0.0 3.0 0.01 0.01 0.01 75 1008.1
20260505183021 80 268 1.0 3.0 0.01 0.01 0.01 75 1008.2
20260505182519 79 233 1.0 5.0 0.01 0.01 0.01 76 1008.3
20260505182016 79 246 2.0 6.0 0.01 0.01 0.01 77 1008.3
20260505181519 79 244 1.0 5.0 0.01 0.01 0.01 77 1008.3
20260505181017 78 258 1.0 4.0 0.01 0.01 0.01 78 1008.3
20260505180515 78 255 1.0 5.0 0.01 0.01 0.01 78 1008.4
20260505180015 78 258 1.0 4.0 0.01 0.01 0.01 78 1008.5
20260505175517 78 261 2.0 4.0 0.01 0.01 0.01 78 1008.6
20260505175018 78 239 1.0 6.0 0.01 0.01 0.01 79 1008.6
20260505174518 78 248 2.0 8.0 0.01 0.01 0.01 78 1008.6
20260505174015 78 235 1.0 6.0 0.00 0.00 0.00 79 1008.7
20260505173515 78 241 1.0 5.0 0.00 0.00 0.00 79 1008.7
20260505173015 77 245 1.0 6.0 0.00 0.00 0.00 79 1008.7
20260505172516 78 248 2.0 6.0 0.00 0.00 0.00 79 1008.8
20260505172019 78 244 1.0 5.0 0.00 0.00 0.00 79 1008.8
20260505171519 77 165 1.0 4.0 0.00 0.00 0.00 81 1008.7
20260505171019 76 229 1.0 5.0 0.00 0.00 0.00 81 1008.8
20260505170519 76 218 1.0 2.0 0.00 0.00 0.00 81 1008.9
20260505170018 76 166 1.0 2.0 0.00 0.00 0.00 82 1008.8
20260505165522 76 249 2.0 5.0 0.00 0.00 0.00 82 1008.8
20260505165018 75 262 1.0 4.0 0.00 0.00 0.00 83 1008.8
20260505164518 75 223 1.0 3.0 0.00 0.00 0.00 83 1008.8
20260505164021 75 255 1.0 3.0 0.00 0.00 0.00 83 1008.8
20260505163521 74 189 1.0 2.0 0.00 0.00 0.00 84 1008.8
20260505163018 74 238 2.0 5.0 0.00 0.00 0.00 85 1008.7
20260505162518 74 256 2.0 4.0 0.00 0.00 0.00 85 1008.7
20260505162021 74 247 1.0 3.0 0.00 0.00 0.00 86 1008.8
20260505161521 73 194 1.0 2.0 0.00 0.00 0.00 87 1008.8
20260505161023 73 151 0.0 1.0 0.00 0.00 0.00 87 1008.9
20260505160521 72 221 1.0 3.0 0.00 0.00 0.00 88 1008.9
20260505153019 71 147 0.0 2.0 0.00 0.00 0.00 90 1009.0
20260505152519 71 241 1.0 3.0 0.00 0.00 0.00 90 1008.9
20260505152022 71 253 0.0 3.0 0.00 0.00 0.00 91 1008.9
20260505151519 71 234 1.0 5.0 0.00 0.00 0.00 91 1008.8
20260505151019 71 236 1.0 4.0 0.00 0.00 0.00 91 1008.8
20260505150519 71 229 1.0 5.0 0.00 0.00 0.00 91 1008.7
20260505140515 71 239 2.0 6.0 0.00 0.00 0.00 91 1008.3
20260505125021 70 237 1.0 4.0 0.00 0.00 0.00 91 1007.6
20260505124524 70 240 1.0 3.0 0.00 0.00 0.00 91 1007.5
20260505124024 70 223 1.0 3.0 0.00 0.00 0.00 91 1007.5
20260505123524 70 266 1.0 4.0 0.00 0.00 0.00 92 1007.4
20260505123024 70 209 1.0 3.0 0.00 0.00 0.00 92 1007.4
20260505122521 70 98 1.0 2.0 0.00 0.00 0.00 91 1007.3
20260505122021 69 220 1.0 4.0 0.00 0.00 0.00 91 1007.3
20260505121520 69 194 1.0 5.0 0.00 0.00 0.00 92 1007.2
20260505121025 69 186 1.0 3.0 0.00 0.00 0.00 92 1007.2
20260505120522 69 219 2.0 4.0 0.00 0.00 0.00 91 1007.1
20260505120022 69 204 1.0 2.0 0.00 0.00 0.00 91 1007.0
20260505115517 69 208 1.0 4.0 0.00 0.00 0.00 91 1006.9
20260505115023 69 236 1.0 5.0 0.00 0.00 0.00 91 1006.9
20260505114526 69 208 1.0 2.0 0.00 0.00 0.00 91 1007.0
20260505114022 69 224 1.0 4.0 0.00 0.00 0.00 91 1007.1
20260505113517 69 237 1.0 5.0 0.00 0.00 0.00 91 1007.0
20260505113018 69 216 1.0 4.0 0.00 0.00 0.00 91 1007.1
20260505112518 69 204 1.0 5.0 0.00 0.00 0.00 91 1007.0
20260505112021 69 225 1.0 7.0 0.00 0.00 0.00 91 1006.9
20260505111515 69 211 1.0 5.0 0.00 0.00 0.00 91 1006.9
20260505111021 69 180 1.0 4.0 0.00 0.00 0.00 91 1007.1
20260505110515 69 215 1.0 3.0 0.00 0.00 0.00 91 1007.2
20260505102016 70 214 2.0 5.0 0.00 0.00 0.00 90 1007.2
20260505101516 70 208 1.0 4.0 0.00 0.00 0.00 90 1007.3
20260505101021 70 215 1.0 6.0 0.00 0.00 0.00 89 1007.3
20260505100519 70 237 1.0 6.0 0.00 0.00 0.00 89 1007.2
20260505100016 70 222 1.0 5.0 0.00 0.00 0.00 89 1007.3
20260505095516 70 212 1.0 3.0 0.00 0.00 0.00 89 1007.2
20260505095016 70 204 1.0 4.0 0.00 0.00 0.00 89 1007.0
20260505094516 70 193 1.0 4.0 0.00 0.00 0.00 89 1007.1
20260505094016 70 224 1.0 5.0 0.00 0.00 0.00 89 1007.3
20260505093519 70 215 1.0 5.0 0.00 0.00 0.00 89 1007.4
20260505093020 70 233 1.0 4.0 0.00 0.00 0.00 89 1007.4
20260505092516 70 191 1.0 3.0 0.00 0.00 0.00 89 1007.4
20260505092017 70 225 1.0 7.0 0.00 0.00 0.00 89 1007.2
20260505091520 70 218 1.0 3.0 0.00 0.00 0.00 89 1007.2
20260505091020 70 214 1.0 6.0 0.00 0.00 0.00 89 1007.4
20260505090522 70 211 1.0 4.0 0.00 0.00 0.00 89 1007.5
20260505090017 70 234 1.0 7.0 0.00 0.00 0.00 89 1007.6
20260505085520 70 180 1.0 4.0 0.00 0.00 0.00 89 1007.5
20260505085017 70 206 1.0 6.0 0.00 0.00 0.00 89 1007.5
20260505084518 70 194 1.0 3.0 0.00 0.00 0.00 89 1007.5
20260505084017 70 218 1.0 5.0 0.00 0.00 0.00 89 1007.6
20260505083522 70 206 1.0 4.0 0.00 0.00 0.00 89 1007.6
20260505083018 70 178 1.0 3.0 0.00 0.00 0.00 89 1007.6
20260505082521 70 232 2.0 8.0 0.00 0.00 0.00 89 1007.8
20260505082021 70 224 1.0 4.0 0.00 0.00 0.00 89 1007.8
20260505081518 70 208 1.0 4.0 0.00 0.00 0.00 89 1007.8
20260505081021 70 224 1.0 4.0 0.00 0.00 0.00 89 1007.8
20260505080521 70 178 1.0 4.0 0.00 0.00 0.00 89 1007.9
20260505080018 70 166 1.0 3.0 0.00 0.00 0.00 88 1008.0
20260505075521 70 199 1.0 5.0 0.00 0.00 0.00 88 1008.0
20260505075015 70 202 1.0 5.0 0.00 0.00 0.00 88 1008.1
20260505074519 70 204 1.0 3.0 0.00 0.00 0.00 88 1008.3
20260505074018 70 209 1.0 5.0 0.00 0.00 0.00 88 1008.3
20260505073515 70 179 1.0 4.0 0.00 0.00 0.00 88 1008.3
20260505073018 70 205 1.0 4.0 0.00 0.00 0.00 88 1008.3
20260505072515 70 180 1.0 3.0 0.00 0.00 0.00 88 1008.4
20260505072016 70 223 1.0 5.0 0.00 0.00 0.00 88 1008.5
20260505071520 70 177 1.0 3.0 0.00 0.00 0.00 88 1008.6
20260505071015 70 234 2.0 7.0 0.00 0.00 0.00 88 1008.6
20260505070518 70 214 1.0 4.0 0.00 0.00 0.00 88 1008.6
20260505070016 70 192 1.0 5.0 0.00 0.00 0.00 88 1008.7
20260505065516 70 222 2.0 7.0 0.00 0.00 0.00 87 1008.7
20260505065019 70 200 1.0 4.0 0.00 0.00 0.00 87 1008.7
20260505064516 70 219 2.0 8.0 0.00 0.00 0.00 87 1008.8
20260505064019 70 232 2.0 6.0 0.00 0.00 0.00 87 1008.8
20260505063516 70 217 1.0 5.0 0.00 0.00 0.00 87 1008.8
20260505063021 70 209 1.0 3.0 0.00 0.00 0.00 87 1009.0
20260505062516 70 217 1.0 4.0 0.00 0.00 0.00 87 1009.1
20260505062017 70 220 2.0 5.0 0.00 0.00 0.00 87 1009.1
20260505061517 70 209 2.0 7.0 0.00 0.00 0.00 87 1009.1
20260505061020 70 209 1.0 5.0 0.00 0.00 0.00 86 1009.2
20260505060517 70 178 1.0 4.0 0.00 0.00 0.00 86 1009.1
20260505060017 70 219 1.0 4.0 0.00 0.00 0.00 86 1009.2
20260505055520 70 228 1.0 3.0 0.00 0.00 0.00 86 1009.1
20260505055017 70 162 1.0 4.0 0.00 0.00 0.00 86 1009.1
20260505054520 70 175 1.0 7.0 0.00 0.00 0.00 86 1009.1
20260505054022 71 223 1.0 4.0 0.00 0.00 0.00 86 1009.1
20260505053521 71 157 1.0 3.0 0.00 0.00 0.00 86 1009.2
20260505053025 71 206 1.0 4.0 0.00 0.00 0.00 86 1009.1
20260505052517 70 216 1.0 6.0 0.00 0.00 0.00 86 1009.1
20260505052017 70 143 1.0 3.0 0.00 0.00 0.00 86 1009.1
20260505051521 70 210 2.0 6.0 0.00 0.00 0.00 86 1009.1
20260505051018 70 235 1.0 5.0 0.00 0.00 0.00 86 1009.1
20260505050517 71 181 1.0 8.0 0.00 0.00 0.00 86 1009.0
20260505041522 72 168 1.0 2.0 0.00 0.00 0.00 84 1009.0
20260505041015 72 172 1.0 4.0 0.00 0.00 0.00 83 1009.0
20260505040519 72 192 1.0 3.0 0.00 0.00 0.00 83 1009.1
20260505040019 72 211 1.0 3.0 0.00 0.00 0.00 83 1009.1
20260505035516 72 204 1.0 2.0 0.00 0.00 0.00 83 1009.2
20260505035020 72 186 1.0 4.0 0.00 0.00 0.00 82 1009.1
20260505034516 72 139 1.0 3.0 0.00 0.00 0.00 82 1009.1
20260505034019 72 206 1.0 3.0 0.00 0.00 0.00 82 1009.1
20260505033516 73 177 1.0 2.0 0.00 0.00 0.00 82 1009.1
20260505033016 73 120 1.0 3.0 0.00 0.00 0.00 81 1009.0
20260505032516 73 167 1.0 4.0 0.00 0.00 0.00 81 1009.0
20260505032020 73 158 1.0 2.0 0.00 0.00 0.00 81 1009.0
20260505031516 73 163 1.0 3.0 0.00 0.00 0.00 80 1009.0
20260505031019 73 179 1.0 3.0 0.00 0.00 0.00 80 1009.0
20260505030521 73 150 1.0 3.0 0.00 0.00 0.00 80 1009.0
20260505030016 73 212 1.0 4.0 0.00 0.00 0.00 79 1009.0
20260505025519 74 218 1.0 3.0 0.00 0.00 0.00 79 1009.1
20260505025017 74 201 1.0 5.0 0.00 0.00 0.00 79 1009.0
20260505024516 74 184 1.0 3.0 0.00 0.00 0.00 79 1008.9
20260505024016 74 167 0.0 2.0 0.00 0.00 0.00 78 1009.0
20260505023516 74 126 1.0 4.0 0.00 0.00 0.00 78 1008.9
20260505023018 74 170 1.0 3.0 0.00 0.00 0.00 78 1008.9
20260505022520 74 185 1.0 2.0 0.00 0.00 0.00 77 1008.9
20260505022022 74 134 1.0 3.0 0.00 0.00 0.00 77 1008.9
20260505021517 74 166 1.0 2.0 0.00 0.00 0.00 76 1008.9
20260505021017 74 151 1.0 3.0 0.00 0.00 0.00 76 1008.9
20260505020517 75 200 1.0 5.0 0.00 0.00 0.00 75 1008.8
20260505020020 75 127 0.0 3.0 0.00 0.00 0.00 74 1008.8
20260505015517 75 154 1.0 3.0 0.00 0.00 0.00 74 1008.8